sat.trackr.live / text

‹ back to catalog

STARLINK-33701

NORAD 63464 · 2025-070E

PAYLOAD ACTIVE UNKNOWN

§ Identity

Operator
Country
US
Launch date
2025-04-06
Launch site
AFETR
Launch vehicle
Mass (kg)
RCS (m²)

Purposes: comms

External: N2YO · Heavens-Above · Gunter

§ Orbital elements

Epoch: 2026-09-20T05:24:01.277856Z

Period
94.27 min
Inclination
42.9974°
Eccentricity
0.0001144
Mean motion
15.27595114 rev/d
Perigee alt
482.2 km
Apogee alt
483.8 km
Semi-major
6,861.1 km
B*
6.1163e-4
RAAN
241.5535°
Arg perigee
265.5136°
Mean anomaly
94.5585°
Rev number
8,272

§ Raw data

STARLINK-337011 63464U 25070E   26263.22501479  .00016614  00000+0  61163-3 0  99932 63464  42.9974 241.5535 0001144 265.5136  94.5585 15.27595114 82728

JSON: /api/v1/satellites/63464 · /tle

For live sub-satellite position, see the globe view (requires WebGL).

§ Visibility from observer

Set your observer location to see the next 7 days of passes ≥ 10°. The values pass through the URL so the page stays shareable.

No JS? Fill the form by hand. The geolocation button needs JavaScript.